Greenwood, SC

1:07 PM EDT on April 26, 2017 (GMT -0400)
Greenwood County

Weather History for KGRD - February, 2014

Change the Weather History Date:

Sunday, February 2, 2014

  Actual Average (KAND) Record (KAND)
Temperature  
Mean Temperature 52 °F -  
Max Temperature 62 °F 55 °F 78 °F (1989)
Min Temperature 42 °F 35 °F 11 °F (1980)
Degree Days  
Heating Degree Days 13    
Growing Degree Days 2 (Base 50)    
Moisture  
Dew Point 46 °F    
Average Humidity 86    
Maximum Humidity 100    
Minimum Humidity 62    
Precipitation  
Precipitation 0.00 in - - ()
Sea Level Pressure  
Sea Level Pressure 30.12 in    
Wind  
Wind Speed 6 mph (SW)    
Max Wind Speed 10 mph    
Max Gust Speed -    
Visibility 6 miles    
Events Fog    
Averages and records for this station are not official NWS values.
T = Trace of Precipitation, MM = Missing Value Source: NWS Daily Summary

Daily Weather History Graph

Daily Weather History Graph

Search for Another Location

Airport or City:

Trip Planner

Search our weather history database for the weather conditions in past years. The results will help you decide how hot, cold, wet, or windy it might be!

Date:

Astronomy

Feb. 02, 2014 Rise Set
Actual Time 7:25 AM EST 5:59 PM EST
Civil Twilight 6:59 AM EST 6:26 PM EST
Nautical Twilight 6:29 AM EST 6:56 PM EST
Astronomical Twilight 5:59 AM EST 7:25 PM EST
Moon 9:01 AM EST (2/2) 9:30 PM EST (2/2)
Length of Visible Light 11h 27m
Length of Day
10h 34m
Waxing Crescent, 11% of the Moon is Illuminated
Feb 2
Waxing Crescent
Feb 6
First Quarter
Feb 14
Full
Feb 22
Last Quarter
Mar 1
New

Hourly Weather History & Observations

Time (EST) Temp. Windchill Dew Point Humidity Pressure Visibility Wind Dir Wind Speed Gust Speed Precip Events Conditions
12:49 AM 44.6 °F 42.2 °F 39.2 °F 81% 30.14 in 10.0 mi South 4.6 mph - N/A   Scattered Clouds
12:56 AM 46.0 °F 44.8 °F 41.0 °F 83% 30.14 in 10.0 mi South 3.5 mph - N/A   Partly Cloudy
1:56 AM 43.0 °F 39.5 °F 39.9 °F 89% 30.14 in 10.0 mi SSW 5.8 mph - N/A   Clear
2:05 AM 42.8 °F 39.3 °F 39.2 °F 87% 30.14 in 10.0 mi SW 5.8 mph - N/A   Scattered Clouds
2:14 AM 44.6 °F 41.4 °F 41.0 °F 87% 30.14 in 10.0 mi SSW 5.8 mph - N/A   Mostly Cloudy
2:56 AM 46.0 °F 43.1 °F 43.0 °F 89% 30.13 in 10.0 mi SSW 5.8 mph - N/A   Overcast
3:26 AM 46.4 °F 42.4 °F 44.6 °F 93% 30.12 in 2.5 mi SSW 8.1 mph - N/A   Overcast
3:37 AM 46.4 °F 42.4 °F 44.6 °F 93% 30.12 in 1.2 mi SSW 8.1 mph - N/A   Overcast
3:56 AM 46.0 °F 41.9 °F 44.1 °F 93% 30.12 in 1.2 mi SSW 8.1 mph - N/A   Overcast
4:23 AM 44.6 °F 39.7 °F 44.6 °F 100% 30.12 in 0.5 mi SW 9.2 mph - N/A Fog Fog
4:56 AM 46.0 °F 41.9 °F 44.1 °F 93% 30.12 in 0.8 mi SW 8.1 mph - N/A   Overcast
5:06 AM 46.4 °F 42.9 °F 44.6 °F 93% 30.12 in 1.0 mi SW 6.9 mph - N/A   Overcast
5:22 AM 46.4 °F 42.4 °F 44.6 °F 93% 30.12 in 0.8 mi SW 8.1 mph - N/A   Overcast
5:29 AM 46.4 °F 41.9 °F 44.6 °F 93% 30.12 in 1.0 mi SW 9.2 mph - N/A   Overcast
5:56 AM 46.0 °F 41.4 °F 44.1 °F 93% 30.12 in 1.2 mi WSW 9.2 mph - N/A   Overcast
6:13 AM 46.4 °F 42.9 °F 44.6 °F 93% 30.12 in 0.8 mi SW 6.9 mph - N/A   Mist
6:56 AM 46.0 °F 41.9 °F 44.1 °F 93% 30.13 in 0.5 mi WSW 8.1 mph - N/A Fog Fog
7:56 AM 46.0 °F 42.5 °F 44.1 °F 93% 30.16 in 0.5 mi WSW 6.9 mph - N/A Fog Fog
8:39 AM 46.4 °F 44.3 °F 44.6 °F 93% 30.17 in 1.0 mi WSW 4.6 mph - N/A   Overcast
8:56 AM 46.0 °F 43.1 °F 45.0 °F 96% 30.18 in 1.2 mi WSW 5.8 mph - N/A   Overcast
9:56 AM 46.9 °F - 45.0 °F 93% 30.19 in 2.5 mi West 4.6 mph - N/A   Overcast
10:04 AM 46.4 °F 42.9 °F 44.6 °F 93% 30.19 in 4.0 mi WSW 6.9 mph - N/A   Overcast
10:32 AM 48.2 °F - 46.4 °F 93% 30.18 in 7.0 mi West 4.6 mph - N/A   Overcast
10:56 AM 48.9 °F - 46.0 °F 90% 30.18 in 8.0 mi West 3.5 mph - N/A   Overcast
11:22 AM 50.0 °F - 46.4 °F 87% 30.17 in 10.0 mi Calm Calm - N/A   Overcast
11:56 AM 51.1 °F - 46.0 °F 83% 30.16 in 10.0 mi Variable 4.6 mph - N/A   Overcast
12:56 PM 54.0 °F - 48.0 °F 80% 30.14 in 10.0 mi WSW 8.1 mph - N/A   Overcast
1:12 PM 55.4 °F - 48.2 °F 77% 30.14 in 10.0 mi SW 10.4 mph - N/A   Overcast
1:56 PM 57.0 °F - 48.0 °F 72% 30.10 in 10.0 mi WSW 6.9 mph - N/A   Scattered Clouds
2:56 PM 62.1 °F - 48.9 °F 62% 30.07 in 10.0 mi SSW 5.8 mph - N/A   Clear
3:56 PM 62.1 °F - 48.9 °F 62% 30.07 in 10.0 mi South 4.6 mph - N/A   Clear
4:56 PM 62.1 °F - 48.9 °F 62% 30.06 in 10.0 mi SSW 6.9 mph - N/A   Clear
5:56 PM 57.0 °F - 48.9 °F 74% 30.07 in 10.0 mi South 4.6 mph - N/A   Clear
6:56 PM 53.1 °F - 48.9 °F 86% 30.06 in 10.0 mi SE 3.5 mph - N/A   Clear
7:56 PM 52.0 °F - 48.0 °F 86% 30.06 in 7.0 mi Calm Calm - N/A   Clear
8:56 PM 53.1 °F - 48.9 °F 86% 30.05 in 9.0 mi SE 3.5 mph - N/A   Mostly Cloudy
9:56 PM 55.0 °F - 50.0 °F 83% 30.02 in 10.0 mi SE 3.5 mph - N/A   Overcast
10:56 PM 55.9 °F - 52.0 °F 87% 30.00 in 10.0 mi South 6.9 mph - N/A   Clear
11:56 PM 60.1 °F - 54.0 °F 80% 29.99 in 10.0 mi South 8.1 mph - N/A   Mostly Cloudy